User: anonymous   Login
Location: Unspecified
(0.0000°N, 0.0000°E)
Time: 23:51:33
(UTC+00:00)
Language:

STARLINK-33764 - Orbit

View from above orbital plane
View from above orbital plane
View from above satellite
View from above satellite

Ground track
Ground track

The orbit is defined by the following mean orbital elements,

1 63510U          26145.42791740 +.00000000 +00000-0 +52681-3 0 00005
2 63510  53.1562 143.8159 0001137  86.1550 273.9581 15.30201118    04
Epoch (UTC): 25 May 2026 10:16:12
Eccentricity: 0.0001137
inclination: 53.1562°
perigee height: 474 km
apogee height: 476 km
right ascension of ascending node: 143.8159°
argument of perigee: 86.1550°
revolutions per day: 15.30201118
mean anomaly at epoch: 273.9581°

The dashed part of the orbit path shows where the satellite is in the earth's shadow,  

DLR